This demonstration page uses our WeatherBlox Daily Observations layout. Learn more.

Left ArrowRight Arrow

39.08367, -84.50855

Hourly Observations for March 9, 2020

Temp ( °F °C ) Dew Point ( °F °C ) Humidity (%) Winds ( mph kmh ) Pressure ( in mb ) Visibility ( mi km ) Precip ( " mm )
12:53 am 00:53 Clear 40 4.4 32 undefined 73 73 SSW 5 7 30.35 1028 10 16 N/A
1:53 am 01:53 Clear 37 2.8 30 -1.1 76 76 N N/A 30.36 1028 10 16 N/A
2:53 am 02:53 Clear 37 2.8 31 -0.6 79 79 N N/A 30.36 1028 10 16 N/A
3:53 am 03:53 Clear 35 1.7 29 -1.7 78 78 SW 6 9 30.36 1028 10 16 N/A
4:53 am 04:53 Clear 36 2.2 30 -1.1 79 79 N N/A 30.35 1028 10 16 N/A
5:53 am 05:53 Clear 39 3.9 31 -0.6 73 73 WSW 5 7 30.36 1028 10 16 N/A
6:53 am 06:53 Clear 42 5.6 31 -0.6 65 65 N N/A 30.37 1028 10 16 N/A
7:53 am 07:53 Clear 47 8.3 33 0.6 59 59 SSW 9 15 30.37 1029 10 16 N/A
8:53 am 08:53 Sunny 49 9.4 32 undefined 52 52 SSW 9 15 30.38 1029 10 16 N/A
9:53 am 09:53 Sunny 54 12.2 32 undefined 43 43 SSW 15 24 30.38 1029 10 16 N/A
10:53 am 10:53 Sunny 58 14.4 34 1.1 41 41 SSW 14 22 30.38 1029 10 16 N/A
11:53 am 11:53 Sunny 60 15.6 35 1.7 39 39 SSW 18 30 30.37 1029 10 16 N/A
12:53 pm 12:53 Sunny 64 17.8 37 2.8 37 37 SSW 17 28 30.35 1028 10 16 N/A
1:53 pm 13:53 Sunny 66 18.9 37 2.8 34 34 S 20 31 30.32 1027 10 16 N/A
2:53 pm 14:53 Sunny 66 18.9 37 2.8 34 34 SSW 18 30 30.28 1025 10 16 N/A
3:53 pm 15:53 Sunny 68 20 37 2.8 32 32 SSW 15 24 30.24 1024 10 16 N/A
4:53 pm 16:53 Sunny 66 18.9 34 1.1 30 30 SW 15 24 30.22 1023 10 16 N/A
5:53 pm 17:53 Mostly Cloudy 64 17.8 37 2.8 37 37 SW 12 19 30.21 1023 10 16 N/A
6:53 pm 18:53 Mostly Sunny 63 17.2 41 5 45 45 S 14 22 30.21 1023 10 16 N/A
7:53 pm 19:53 Clear 61 16.1 42 5.6 50 50 SSW 9 15 30.21 1023 10 16 N/A
8:53 pm 20:53 Cloudy 62 16.7 42 5.6 48 48 SSW 18 30 30.18 1022 10 16 N/A
9:53 pm 21:53 Partly Cloudy 62 16.7 43 6.1 50 50 S 16 26 30.17 1022 10 16 N/A
10:53 pm 22:53 Cloudy 62 16.7 43 6.1 50 50 SSW 16 26 30.16 1021 10 16 N/A
11:53 pm 23:53 Cloudy with Light Rain 60 15.6 46 7.8 60 60 SSW 17 28 30.14 1021 10 16 0.00 0.00

Powered by AerisWeather